Temperature
7 7 7 7 7 7 6 6 6 7 7 7 7 6 6 6 6 6 7 7 7 7 8 8 8 8 8 9 10 11 11 12 13 14 14 14 14 14 14 15 15 16 16
7 7 7 7 6 6 6 6 6 6 6 6 6 6 6 5 5 5 6 6 6 6 7 7 7 7 8 8 9 9 10 11 12 13 14 14 14 14 14 14 15 15 15
7 7 8 7 7 6 6 6 6 6 6 5 5 5 5 5 5 4 5 5 5 5 5 6 6 6 7 7 8 8 9 10 11 12 13 13 13 13 13 14 14 14 15
7 8 8 7 7 7 7 6 6 5 5 5 4 4 4 4 4 4 4 4 4 4 4 4 4 5 5 6 6 7 7 8 9 10 11 12 12 13 13 13 13 14 14
7 8 8 8 7 7 7 6 5 5 4 4 4 4 4 4 3 3 3 3 3 3 3 3 3 3 4 4 5 6 6 7 8 9 9 10 11 12 12 12 13 13 14
7 7 8 8 7 7 6 6 5 5 4 4 4 4 4 3 3 3 3 3 3 3 2 2 2 2 2 2 3 4 5 5 6 8 8 9 9 10 11 11 12 12 13
7 7 7 7 7 7 6 6 5 4 4 4 3 3 3 3 3 3 3 3 3 2 2 2 2 1 1 1 1 2 2 3 5 6 7 7 8 8 8 8 10 11 12
7 7 7 7 6 6 6 5 5 4 4 3 3 3 3 3 3 3 3 3 3 2 2 2 1 1 1 1 1 1 1 1 3 4 5 6 6 6 6 6 8 10 11
6 6 6 6 6 6 5 5 4 4 4 3 3 4 4 4 4 3 3 3 3 2 2 2 1 1 1 0 0 -0 -0 0 1 2 3 4 5 5 4 5 6 8 10
6 6 6 6 6 6 5 4 4 3 3 3 3 4 4 3 3 3 3 3 2 2 2 1 1 0 0 -0 -0 -1 -1 -1 -0 0 1 2 3 3 3 4 4 6 8
5 5 5 6 6 5 5 4 4 4 3 3 3 3 3 3 3 2 2 1 1 1 0 0 -0 -1 -1 -0 -1 -2 -2 -2 -2 -1 -1 -0 1 2 2 2 3 4 6
4 5 5 5 5 5 5 4 4 3 3 3 2 2 2 2 2 1 1 0 -0 -1 -1 -1 -2 -2 -2 -2 -2 -3 -3 -4 -4 -3 -3 -2 -1 -0 1 2 2 3 4
4 5 5 5 5 5 4 4 3 2 2 2 2 1 1 1 1 -0 -0 -1 -2 -3 -3 -3 -3 -4 -4 -4 -4 -4 -5 -5 -5 -5 -5 -4 -3 -2 -1 0 1 2 2
4 4 4 4 5 4 4 3 2 2 1 1 1 0 0 -0 -1 -1 -2 -3 -4 -5 -5 -5 -6 -6 -6 -6 -6 -6 -6 -6 -6 -6 -6 -5 -4 -3 -2 -1 -0 1 2
4 4 4 4 4 4 3 2 2 1 1 1 0 -0 -1 -1 -2 -3 -3 -4 -5 -6 -6 -7 -7 -7 -7 -7 -8 -8 -7 -7 -7 -7 -7 -7 -6 -5 -4 -2 -1 -0 1
4 3 4 4 4 3 2 2 1 1 1 0 -0 -1 -1 -2 -3 -4 -4 -5 -6 -7 -7 -7 -8 -8 -8 -8 -8 -8 -8 -8 -8 -8 -8 -8 -7 -6 -5 -4 -2 -1 -0
4 3 3 4 4 3 2 2 1 1 0 0 -0 -1 -2 -3 -4 -5 -5 -6 -7 -7 -8 -8 -8 -9 -9 -9 -9 -9 -9 -9 -9 -9 -9 -9 -8 -7 -6 -5 -3 -2 -1
3 3 3 3 3 3 2 2 1 0 0 -0 -1 -2 -3 -3 -4 -5 -6 -7 -7 -8 -8 -9 -9 -9 -9 -10 -10 -10 -10 -10 -10 -10 -10 -9 -9 -8 -7 -5 -4 -3 -1
3 3 3 3 3 2 2 1 1 0 0 -0 -1 -2 -3 -4 -5 -6 -6 -7 -8 -8 -8 -9 -9 -10 -10 -10 -10 -10 -10 -10 -11 -10 -10 -10 -9 -8 -7 -6 -4 -3 -2
3 3 2 2 2 2 2 1 1 1 0 -0 -1 -2 -4 -4 -5 -6 -7 -8 -8 -9 -9 -9 -10 -10 -10 -10 -11 -11 -11 -11 -11 -11 -11 -10 -9 -8 -7 -6 -5 -4 -3
3 3 2 2 2 2 2 2 1 1 0 -1 -2 -3 -4 -5 -6 -7 -8 -8 -8 -9 -9 -9 -10 -10 -10 -10 -11 -11 -11 -11 -11 -11 -11 -10 -10 -9 -7 -6 -5 -4 -4
3 2 2 2 2 2 2 1 1 0 -0 -1 -3 -4 -5 -6 -6 -7 -8 -8 -9 -9 -9 -9 -10 -10 -10 -10 -11 -11 -11 -11 -10 -11 -11 -11 -10 -10 -8 -7 -6 -5 -5
3 2 2 2 2 2 2 1 1 -0 -1 -2 -3 -4 -5 -6 -7 -8 -8 -9 -9 -10 -10 -10 -10 -10 -10 -10 -10 -11 -11 -11 -11 -11 -11 -11 -10 -10 -9 -8 -7 -6 -5
3 2 2 2 2 2 1 1 0 -1 -1 -2 -3 -4 -5 -6 -7 -8 -9 -9 -10 -10 -10 -10 -10 -10 -10 -10 -10 -10 -11 -11 -11 -11 -10 -10 -10 -10 -9 -8 -7 -7 -6
3 3 2 2 2 2 1 1 -0 -1 -2 -3 -4 -5 -6 -6 -7 -8 -9 -9 -10 -10 -10 -10 -10 -10 -10 -10 -10 -11 -11 -11 -11 -11 -11 -10 -10 -9 -9 -8 -7 -6 -6
3 3 2 2 2 1 1 0 -0 -1 -2 -3 -4 -5 -6 -6 -7 -8 -9 -10 -10 -10 -10 -10 -10 -10 -10 -10 -10 -11 -11 -11 -11 -11 -11 -11 -10 -9 -9 -8 -7 -7 -6
Wind_Speed
6 13 17 19 20 21 21 22 23 24 25 26 26 27 27 28 28 28 29 29 29 30 30 30 30 30 30 30 30 30 30 30 30 31 32 30 27 26 24 22 21 16 17
8 13 16 17 18 19 20 21 22 23 24 25 26 26 26 27 27 27 27 28 28 29 29 29 30 30 30 30 30 30 30 30 30 31 32 27 26 27 26 25 24 20 20
10 13 15 16 17 18 20 21 22 23 24 24 25 25 26 26 26 26 27 27 27 27 28 28 29 29 29 29 30 30 30 30 30 31 28 23 24 26 26 26 26 25 23
11 13 13 15 16 18 19 20 21 22 23 23 24 25 25 25 26 26 26 26 27 27 27 27 28 28 29 29 30 30 30 30 30 29 23 23 23 24 25 26 26 26 25
12 13 13 14 15 17 18 19 20 21 22 23 23 24 25 25 25 25 25 26 26 26 27 27 27 27 28 28 29 30 30 30 30 26 23 23 22 23 25 25 25 26 26
12 12 11 13 14 15 17 18 19 20 21 21 22 23 24 24 24 24 25 26 26 27 27 27 27 27 27 28 28 29 29 30 28 23 23 23 21 24 24 23 24 25 26
10 9 9 11 12 13 14 16 17 18 20 20 21 23 24 23 24 24 25 26 27 27 28 28 28 28 28 28 28 28 28 28 26 24 23 22 22 25 24 23 24 25 26
9 8 8 9 11 11 12 14 16 17 19 20 20 22 23 23 24 24 25 26 27 28 28 29 29 28 29 29 28 28 27 27 25 24 24 22 23 25 24 24 24 25 25
8 8 8 10 11 11 11 12 14 15 17 19 20 22 23 23 24 25 25 27 28 29 29 30 29 30 30 30 28 28 27 28 25 21 22 21 24 26 25 25 25 25 25
8 8 8 10 10 10 11 12 13 14 16 18 19 22 22 22 23 24 25 27 28 29 30 30 30 31 31 29 29 29 29 26 22 23 22 23 27 28 27 27 26 26 26
7 8 8 9 9 11 10 11 12 13 15 16 17 20 20 21 21 21 24 26 27 28 29 29 30 31 30 28 29 30 27 21 24 22 22 25 28 29 29 29 28 28 27
7 6 8 7 8 10 10 11 11 11 12 14 15 17 18 19 19 19 23 25 26 27 27 28 30 28 27 25 26 28 23 24 23 21 22 28 31 31 31 31 30 29 28
8 5 6 5 6 8 9 10 10 10 11 13 13 15 16 16 17 18 19 20 22 22 22 24 23 23 24 25 25 25 25 24 22 23 25 31 33 33 33 33 32 31 30
8 6 5 3 5 6 7 8 8 9 9 11 11 13 14 14 15 16 17 19 19 19 19 19 20 22 23 24 24 24 24 24 24 25 26 32 34 34 35 35 34 33 31
8 7 4 3 5 5 5 6 8 8 8 10 10 11 13 12 12 15 16 17 18 18 18 19 19 20 20 21 22 23 23 26 27 27 26 32 35 36 36 36 35 34 32
8 7 5 4 3 3 4 6 7 7 8 8 9 10 11 12 13 14 14 16 16 17 18 19 19 18 17 18 18 21 23 26 26 27 28 31 34 36 36 36 35 34 33
8 6 5 2 1 3 4 5 6 7 7 7 7 9 10 12 13 14 13 13 16 18 19 18 18 17 15 15 13 19 21 23 25 27 29 29 30 33 36 36 35 34 32
8 6 5 2 1 2 4 6 7 6 6 7 7 8 9 12 13 13 12 13 17 18 17 14 11 6 8 9 10 10 16 19 22 26 28 29 29 29 31 35 35 33 31
8 7 6 4 2 1 3 6 6 6 6 7 7 7 9 11 12 13 13 14 17 16 14 14 8 8 10 10 11 11 8 10 16 24 25 29 29 29 28 31 33 31 29
9 7 6 4 3 1 2 4 5 5 6 8 7 7 9 11 12 14 14 14 16 12 8 8 10 9 9 10 15 15 12 12 13 14 18 22 24 27 26 25 22 20 22
10 8 7 5 3 1 0 2 3 3 4 6 7 8 9 11 13 14 13 13 13 8 7 9 10 11 10 8 11 14 13 12 13 13 12 14 19 23 22 19 15 13 13
11 10 7 6 3 2 1 1 3 4 4 7 8 7 9 11 13 14 12 11 12 8 9 9 9 9 12 9 10 15 14 14 10 13 12 15 16 15 16 19 16 14 12
11 10 8 6 4 3 2 2 3 3 4 4 3 4 9 13 14 13 14 13 12 9 8 9 10 11 12 12 8 8 10 13 17 12 13 14 13 14 14 13 14 14 15
11 10 8 7 5 4 3 3 3 4 4 5 4 4 10 13 13 14 14 13 12 11 8 9 9 9 11 13 11 8 10 12 13 15 12 10 14 14 14 14 13 14 16
11 10 8 7 7 5 4 4 4 5 4 4 5 6 6 9 12 14 15 13 12 11 10 9 9 10 9 10 11 12 14 13 12 11 16 16 14 12 12 13 12 11 15
11 10 8 8 7 7 6 5 5 5 6 6 7 6 5 5 8 12 14 13 14 13 10 10 9 11 10 10 10 10 12 12 13 11 12 15 15 14 13 12 12 11 12
Wind_Direction
25 23 16 16 19 21 23 24 25 25 25 24 23 22 20 19 18 16 14 13 11 9 8 7 5 3 1 360 358 355 352 351 349 347 343 338 339 341 342 344 344 336 332
35 30 21 20 22 24 25 25 25 25 24 22 21 19 18 17 16 15 13 11 9 7 5 3 2 360 358 357 355 353 350 349 347 346 340 339 342 340 344 346 343 340 334
52 43 25 24 26 26 27 26 25 23 22 20 18 17 15 14 13 12 11 9 7 5 3 1 359 356 354 353 351 349 347 346 345 343 340 340 340 335 337 341 340 339 338
64 53 30 29 29 29 28 26 24 22 20 18 16 14 12 11 10 9 8 6 4 2 0 358 356 353 351 349 347 344 343 342 341 341 339 333 333 328 330 335 336 336 336
75 67 38 33 32 30 28 26 23 20 17 15 13 11 9 8 7 6 5 4 1 359 357 355 353 350 348 345 343 340 338 337 337 337 330 325 324 323 324 328 331 332 332
77 74 52 36 34 31 28 25 21 18 15 12 11 9 7 5 4 4 3 1 358 356 354 352 350 347 345 342 339 337 335 333 334 330 323 318 319 317 317 322 326 328 327
80 75 64 42 33 29 25 21 18 15 12 10 9 7 5 3 2 1 0 358 356 353 352 349 347 345 343 340 337 334 332 330 328 326 317 312 313 311 313 318 321 323 322
85 69 57 42 30 22 19 17 12 11 9 7 7 6 3 2 360 359 359 356 353 351 349 347 344 343 341 338 336 333 331 329 324 318 311 309 310 309 310 313 316 316 316
86 72 58 51 29 12 10 12 7 7 6 5 6 4 2 1 359 357 357 353 351 349 348 345 343 342 340 338 336 334 333 328 325 315 313 315 308 305 306 309 310 310 310
103 80 51 51 33 13 3 1 3 4 4 4 4 2 2 359 356 353 353 349 348 348 346 344 343 341 340 340 337 335 332 331 325 321 315 308 303 302 302 303 304 305 305
106 87 65 45 29 13 1 0 358 359 0 2 2 359 359 356 351 349 347 346 346 345 344 343 343 341 342 339 335 333 333 326 322 315 307 302 301 301 301 301 300 300 299
99 81 71 49 31 17 2 354 352 353 357 357 1 359 356 354 348 349 346 343 344 342 343 341 340 341 338 334 331 330 324 320 318 313 309 306 304 301 299 297 296 294 294
108 88 76 60 45 23 358 349 342 346 355 351 356 354 356 353 346 346 344 339 338 338 338 335 336 335 332 329 326 323 321 321 317 313 309 305 301 299 296 294 292 290 289
119 112 89 61 60 30 356 335 336 346 349 345 350 353 358 349 345 344 338 334 334 333 332 334 331 326 325 324 322 319 320 319 315 311 306 302 301 298 295 292 289 287 285
133 127 116 80 58 21 340 332 340 340 339 338 345 352 354 349 343 339 332 329 328 329 331 329 323 321 321 319 317 318 317 314 311 307 305 302 300 297 294 290 287 284 281
139 130 112 76 36 353 348 345 328 326 325 337 341 345 346 350 342 334 327 324 323 327 325 320 317 316 314 314 314 315 312 309 306 306 304 302 299 295 292 288 285 282 279
137 135 128 143 23 349 351 330 313 307 322 329 335 339 341 349 338 332 321 318 320 322 319 316 311 310 312 314 311 309 308 306 305 304 302 299 296 293 289 286 282 279 275
147 150 138 158 345 343 342 316 304 309 324 325 334 331 337 341 331 327 318 314 316 319 315 310 305 310 308 305 304 304 304 304 304 304 301 298 294 289 285 282 280 277 274
160 154 161 157 209 312 323 308 311 317 325 327 324 322 328 329 325 324 315 309 315 315 309 311 318 308 306 306 305 302 301 303 301 301 299 296 293 287 280 276 273 272 271
156 159 175 170 178 17 333 325 314 318 323 313 306 310 322 322 321 319 309 310 314 309 306 306 306 303 302 304 308 307 300 296 298 296 297 300 301 295 285 275 271 273 273
161 174 181 175 162 129 69 328 311 311 301 299 300 307 318 317 315 310 304 306 308 303 300 300 304 306 305 302 307 307 301 292 291 296 299 306 304 303 301 297 288 280 278
175 177 173 170 154 161 153 257 253 266 270 281 284 309 314 309 306 305 304 302 301 299 299 300 304 304 308 310 307 308 308 308 301 305 301 299 302 308 310 306 302 293 285
179 172 168 158 174 197 186 254 279 286 289 299 322 316 305 302 302 302 301 300 299 299 297 300 301 305 311 310 297 298 302 305 311 303 299 298 302 304 302 301 297 295 289
172 147 150 168 189 199 202 235 273 286 289 293 294 284 295 303 305 306 302 301 301 298 293 300 311 304 306 310 311 296 286 289 298 306 308 299 302 306 310 310 309 303 295
151 147 160 175 195 199 200 230 252 267 276 286 290 290 296 303 304 304 302 305 302 298 295 298 302 302 301 301 308 310 307 300 289 290 302 309 309 306 304 303 301 295 290
143 149 163 183 201 198 203 226 242 263 281 293 297 299 298 293 296 299 305 307 302 297 296 298 300 302 301 302 306 307 308 308 306 298 293 299 303 304 303 300 296 293 287
Height
1617 1615 1612 1610 1608 1605 1603 1600 1597 1594 1592 1589 1587 1585 1582 1580 1577 1575 1573 1571 1569 1567 1565 1563 1561 1558 1556 1554 1553 1551 1549 1548 1547 1547 1547 1547 1547 1547 1547 1547 1547 1547 1547
1616 1613 1611 1609 1607 1604 1602 1599 1596 1594 1592 1589 1587 1584 1582 1579 1577 1574 1572 1570 1568 1566 1563 1561 1559 1557 1555 1553 1551 1549 1547 1545 1544 1543 1544 1544 1544 1544 1544 1544 1544 1544 1545
1614 1612 1610 1608 1606 1604 1601 1599 1596 1594 1591 1589 1586 1583 1581 1578 1576 1573 1571 1569 1566 1564 1562 1560 1558 1556 1553 1551 1549 1547 1545 1543 1541 1540 1540 1540 1540 1540 1540 1540 1540 1541 1541
1612 1611 1609 1607 1605 1603 1600 1598 1595 1593 1590 1588 1585 1583 1580 1578 1575 1572 1570 1567 1565 1562 1560 1558 1556 1553 1551 1549 1547 1545 1542 1540 1538 1536 1536 1535 1536 1536 1536 1536 1536 1537 1537
1611 1609 1608 1606 1604 1602 1600 1597 1594 1592 1590 1587 1584 1582 1579 1576 1574 1571 1568 1565 1563 1560 1558 1555 1553 1551 1548 1546 1544 1542 1539 1537 1535 1533 1532 1531 1531 1531 1532 1531 1532 1532 1532
1609 1608 1607 1605 1603 1601 1598 1596 1593 1591 1588 1586 1583 1580 1578 1575 1572 1570 1567 1564 1561 1558 1555 1553 1550 1547 1545 1543 1540 1538 1536 1533 1531 1529 1528 1527 1526 1526 1527 1526 1526 1527 1527
1608 1607 1606 1604 1602 1600 1597 1595 1592 1590 1587 1584 1582 1579 1576 1574 1571 1568 1565 1562 1559 1556 1553 1550 1547 1544 1542 1539 1536 1534 1531 1529 1527 1525 1524 1523 1522 1522 1521 1521 1521 1521 1522
1607 1606 1605 1603 1601 1598 1596 1593 1591 1588 1586 1583 1581 1578 1575 1573 1570 1567 1564 1561 1557 1554 1551 1548 1545 1541 1538 1535 1532 1530 1527 1524 1522 1520 1519 1518 1517 1517 1516 1515 1515 1515 1516
1606 1605 1604 1602 1600 1597 1595 1592 1590 1587 1585 1582 1580 1577 1574 1572 1569 1566 1562 1559 1555 1552 1549 1545 1542 1538 1535 1531 1528 1525 1522 1519 1516 1514 1513 1513 1513 1512 1511 1510 1509 1509 1509
1604 1603 1602 1600 1598 1596 1593 1591 1589 1586 1584 1581 1579 1576 1573 1570 1567 1564 1560 1556 1553 1549 1546 1542 1538 1534 1530 1527 1523 1520 1517 1513 1511 1509 1507 1507 1507 1506 1505 1504 1503 1502 1502
1603 1601 1600 1598 1596 1594 1592 1590 1587 1585 1582 1579 1577 1574 1571 1567 1564 1560 1557 1553 1550 1546 1542 1538 1534 1530 1526 1521 1518 1514 1511 1507 1505 1502 1501 1500 1501 1500 1499 1498 1496 1495 1495
1600 1599 1598 1596 1595 1593 1590 1587 1585 1582 1580 1577 1574 1571 1567 1564 1560 1557 1553 1550 1546 1542 1538 1534 1530 1526 1521 1516 1512 1509 1505 1502 1499 1497 1495 1495 1494 1493 1492 1491 1489 1488 1488
1598 1597 1595 1594 1592 1590 1588 1585 1582 1580 1577 1574 1571 1567 1564 1560 1557 1553 1548 1544 1540 1536 1532 1528 1525 1521 1517 1513 1508 1505 1501 1497 1494 1491 1488 1487 1486 1485 1484 1483 1482 1481 1481
1595 1594 1593 1592 1590 1588 1585 1582 1580 1577 1574 1571 1568 1564 1560 1556 1552 1548 1544 1539 1536 1532 1528 1524 1520 1516 1513 1509 1505 1501 1497 1493 1489 1485 1481 1480 1478 1477 1476 1475 1474 1473 1473
1592 1591 1590 1589 1587 1585 1582 1579 1577 1574 1571 1568 1565 1561 1557 1553 1548 1544 1540 1536 1532 1528 1524 1520 1516 1512 1509 1505 1501 1497 1493 1488 1483 1479 1475 1472 1470 1468 1467 1466 1465 1465 1465
1589 1588 1587 1586 1584 1582 1579 1577 1574 1571 1568 1566 1562 1559 1554 1550 1545 1541 1536 1533 1529 1525 1522 1518 1513 1509 1505 1501 1497 1493 1488 1483 1478 1473 1469 1464 1461 1459 1457 1456 1456 1456 1456
1585 1585 1584 1583 1581 1579 1576 1574 1571 1568 1566 1563 1559 1556 1551 1547 1543 1538 1534 1530 1526 1523 1519 1515 1510 1506 1502 1497 1492 1487 1482 1478 1472 1467 1462 1457 1453 1450 1448 1447 1447 1447 1448
1581 1581 1580 1580 1578 1576 1573 1571 1568 1565 1563 1560 1556 1553 1549 1544 1540 1535 1531 1527 1524 1520 1516 1512 1507 1503 1498 1492 1487 1482 1477 1472 1466 1461 1455 1450 1445 1441 1438 1437 1437 1438 1439
1577 1577 1577 1576 1575 1572 1570 1567 1565 1563 1560 1557 1553 1549 1545 1541 1537 1533 1529 1525 1521 1517 1513 1509 1504 1499 1494 1488 1482 1476 1471 1465 1460 1454 1448 1442 1437 1433 1430 1429 1429 1430 1431
1573 1573 1573 1572 1571 1569 1567 1564 1562 1559 1557 1554 1550 1546 1542 1538 1534 1530 1526 1522 1518 1514 1510 1506 1501 1496 1490 1484 1478 1471 1465 1459 1453 1447 1442 1436 1430 1426 1424 1423 1422 1422 1423
1568 1568 1569 1568 1567 1565 1563 1561 1558 1556 1553 1550 1547 1543 1539 1535 1531 1527 1523 1519 1515 1511 1507 1502 1498 1492 1486 1481 1474 1465 1458 1452 1447 1442 1437 1430 1424 1420 1417 1415 1415 1415 1416
1563 1564 1564 1563 1562 1561 1559 1557 1554 1552 1549 1546 1543 1540 1536 1532 1528 1524 1520 1516 1512 1508 1503 1499 1495 1489 1482 1478 1472 1462 1453 1445 1440 1436 1431 1425 1420 1415 1411 1409 1408 1408 1409
1558 1558 1559 1559 1559 1557 1555 1553 1550 1548 1546 1543 1540 1536 1532 1528 1524 1521 1517 1513 1509 1505 1500 1496 1492 1486 1480 1473 1469 1464 1454 1444 1434 1427 1425 1420 1416 1411 1407 1405 1404 1404 1404
1553 1553 1554 1555 1554 1553 1551 1549 1547 1544 1542 1539 1536 1532 1528 1525 1521 1517 1513 1509 1505 1501 1497 1493 1488 1484 1478 1471 1464 1460 1454 1446 1437 1425 1418 1415 1411 1408 1404 1401 1399 1398 1399
1547 1547 1549 1550 1550 1549 1547 1545 1543 1541 1538 1535 1531 1528 1524 1521 1517 1513 1509 1506 1502 1497 1493 1489 1484 1480 1475 1469 1462 1456 1449 1442 1436 1430 1419 1410 1406 1403 1400 1398 1395 1394 1394
1541 1542 1544 1545 1545 1544 1543 1541 1539 1537 1534 1531 1527 1524 1520 1516 1512 1509 1506 1501 1497 1493 1489 1485 1480 1475 1471 1465 1459 1453 1447 1440 1433 1427 1419 1411 1404 1399 1397 1394 1392 1390 1389